Location: Unspecified
(0.0000°N, 0.0000°E)
Time: 12:47:38
(UTC+00:00)

Vanguard 2 - Pass Details

Date: 16 September 2019
Orbit: 554 x 2937 km, 32.9° (Epoch: 13 October)

Event Time Altitude Azimuth Distance (km) Brightness Sun altitude
Rises 23:30:39 0° 229° (SW) 6,631 12.3 -83.5°
Enters shadow 23:33:12 - 228° (SW) 6,095 12.1 -84.1°
Reaches altitude 10° 23:35:00 10° 226° (SW) 5,720 - -84.5°
Maximum altitude 23:53:00 69° 145° (SE) 2,882 - -87.5°
Drops below altitude 10° 00:07:06 10° 65° (ENE) 4,634 - -86.1°
Sets 00:10:12 0° 62° (ENE) 5,366 - -85.4°
